Location: Lower Kingswood
(51.2667°N, 0.2167°W)
Time: 10:06:21
(UTC+00:00)

Cosmos 1937 Rocket - Pass Details

Date: 26 September 2023
Orbit: 744 x 779 km, 74.0° (Epoch: 09 December)

Event Time Altitude Azimuth Distance (km) Brightness Sun altitude
Exits shadow 04:43:49 16° 257° (WSW) 1,900 4.9 -11.5°
Maximum altitude 04:47:07 30° 309° (NW) 1,343 4.4 -11.0°
Drops below altitude 10° 04:51:40 10° 10° (N) 2,297 6.3 -10.3°
Sets 04:54:21 0° 21° (NNE) 3,232 7.2 -9.9°
